SCP
-0 -0 0 -0 -0 -0 -0 -0 -0 -0 -0 0 0 0 0 0 0 0 -0 -0 -0 -0 -0 -0 -0 0 0 0 0 0 0 0 0 0 0 0 0 0 0 0 0 0 0
0 0 -0 -0 -0 -0 -0 -0 -0 -0 0 0 0 0 0 0 0 0 0 -0 -0 -0 -0 -0 -0 -0 0 0 0 0 0 0 0 0 0 0 0 0 0 0 0 0 0
0 0 -0 -0 -0 -0 -0 -0 0 0 0 0 0 0 0 0 0 0 0 0 0 0 0 -0 0 0 0 0 0 0 0 0 0 0 0 0 0 0 0 0 0 0 0
0 0 -0 -0 -0 -0 -0 0 0 0 0 0 0 0 0 0 0 0 0 0 0 0 0 0 0 0 0 0 0 0 0 0 0 0 0 0 0 0 0 0 0 0 0
0 0 0 -0 -0 -0 -0 -0 0 0 0 0 0 0 0 0 0 0 0 0 0 0 0 0 0 0 0 0 0 0 -0 -0 -0 0 0 0 0 0 0 0 0 0 0
0 0 -0 -0 -0 -0 -0 -0 0 0 0 0 0 0 0 0 0 0 0 0 0 0 0 0 0 0 0 0 0 0 0 0 -0 0 0 -0 0 0 0 0 0 0 0
0 0 0 -0 -0 -0 0 0 0 0 0 0 0 0 0 0 0 0 0 0 0 0 0 0 0 0 0 0 0 0 0 0 0 0 0 0 0 -0 0 0 0 0 0
0 0 0 -0 -0 0 0 0 0 0 0 0 0 0 0 0 0 0 0 0 0 0 0 0 0 0 0 0 0 0 0 0 0 0 0 0 0 -0 0 0 0 0 0
0 0 0 0 0 0 0 0 0 0 0 0 0 0 0 0 0 0 0 0 0 0 0 0 0 0 0 0 0 0 0 0 0 0 0 0 0 0 -0 0 0 0 0
0 0 0 0 0 0 0 0 0 0 0 0 0 0 0 0 0 0 0 0 0 0 0 0 0 0 0 0 0 0 0 0 0 0 0 0 0 0 0 0 0 0 0
0 0 0 0 0 0 0 0 0 0 0 0 0 0 0 0 0 0 0 0 0 0 0 0 0 0 0 0 0 0 0 0 0 0 0 0 0 0 0 0 0 0 0
0 0 0 0 0 0 0 0 0 0 0 0 0 0 0 0 0 0 0 0 0 0 0 0 0 0 0 0 0 0 0 0 0 0 0 0 0 0 0 0 1 1 0
0 0 0 0 0 0 0 0 0 0 0 0 0 0 0 0 0 0 0 0 0 0 0 0 0 0 0 0 0 0 0 0 0 0 0 0 0 0 0 0 0 1 1
0 0 0 0 0 0 0 0 0 0 0 0 0 0 0 0 0 0 0 0 0 0 0 0 0 0 0 0 0 0 0 0 0 0 0 0 0 0 0 0 0 0 0
0 0 0 0 0 0 0 0 0 0 0 0 0 0 0 0 0 0 0 0 0 0 0 0 0 0 0 0 0 0 0 0 0 0 0 0 0 0 0 0 0 0 0
0 0 0 0 0 0 0 0 0 0 0 0 0 0 0 0 0 0 0 0 0 0 0 0 0 0 0 0 0 0 0 0 0 0 0 0 0 0 0 0 0 0 0
0 0 0 0 0 0 0 0 0 0 0 0 0 0 0 0 0 0 0 0 0 0 0 0 0 0 0 0 0 0 0 0 0 0 0 0 0 0 0 0 0 0 0
0 0 0 0 0 0 0 0 0 0 0 0 0 0 0 0 0 0 0 0 0 0 0 0 0 0 0 0 0 0 0 0 0 0 0 0 0 0 0 0 0 1 0
0 0 0 0 0 0 0 0 0 0 0 0 0 0 0 0 0 0 0 0 0 0 0 0 0 0 0 0 0 0 0 0 0 0 0 0 0 0 0 0 0 0 0
0 0 0 0 0 0 0 0 0 0 0 0 0 0 0 0 0 0 0 0 0 0 0 0 0 0 0 0 0 0 0 0 0 0 0 0 0 0 0 0 0 0 0
0 0 0 0 0 0 0 0 0 0 0 0 0 0 0 0 0 0 0 0 0 0 0 0 0 0 0 0 0 0 0 0 0 0 0 0 0 0 0 0 0 0 0
0 0 0 0 0 0 0 0 0 0 0 0 0 0 0 0 0 0 0 0 0 0 0 0 0 0 0 0 0 0 0 0 0 0 0 0 0 0 0 0 0 0 0
0 0 0 0 0 0 0 0 0 0 0 0 0 0 0 0 0 0 0 0 0 0 0 0 0 0 0 0 0 0 0 0 0 0 0 0 0 0 0 0 0 0 0
0 0 0 0 0 0 0 0 0 0 0 0 0 0 0 0 0 0 0 0 0 0 0 0 0 0 0 0 0 0 0 0 0 0 0 0 0 0 0 0 0 0 0
0 0 0 0 0 0 0 0 0 0 0 0 0 0 0 0 0 0 0 0 0 0 0 0 0 0 0 0 0 0 0 0 0 0 0 0 0 0 0 0 0 0 0
0 0 0 0 0 0 0 0 0 0 0 0 0 0 0 0 0 0 0 0 0 0 0 0 0 0 0 0 0 0 0 0 0 0 0 0 0 0 0 0 0 0 0
Wind_Speed_500mb
12 8 3 7 8 8 8 8 7 6 7 9 10 10 12 13 16 16 14 13 12 10 8 8 8 7 5 6 8 8 1 3 4 5 4 4 7 9 11 13 11 10 6
12 12 6 9 9 8 7 7 6 5 4 5 7 7 8 10 12 14 12 10 10 10 8 5 4 2 1 2 1 5 5 3 8 6 4 6 7 7 8 13 13 11 5
10 5 11 7 7 6 5 4 3 2 1 3 5 6 8 9 10 12 11 6 4 4 4 2 2 3 4 4 6 7 6 6 7 13 10 7 5 3 9 10 13 11 6
21 15 11 8 6 5 4 2 2 3 4 5 7 9 9 9 9 10 10 8 6 5 4 4 4 5 8 9 9 9 8 7 7 11 13 10 10 8 5 9 14 12 9
20 19 15 10 7 5 3 2 3 4 7 9 11 12 13 14 15 14 13 11 10 10 11 11 12 12 12 12 12 11 10 9 9 12 17 13 10 8 4 15 14 15 12
24 18 16 12 8 6 4 1 6 9 10 12 13 13 14 18 19 18 18 17 16 15 15 15 17 18 18 17 15 14 14 12 13 16 20 18 16 13 15 21 19 19 17
24 20 18 15 12 10 8 9 11 12 14 15 16 16 17 18 20 21 21 22 22 22 21 21 21 22 22 22 21 19 17 16 16 20 27 24 19 16 19 21 22 23 22
19 17 13 10 8 8 10 10 11 13 15 17 19 19 20 21 22 23 23 24 26 27 28 27 27 27 27 26 26 25 23 22 19 21 27 29 24 22 23 32 29 29 28
16 12 9 8 7 8 9 10 13 16 19 22 23 24 26 25 26 27 27 27 26 29 31 33 34 33 32 32 30 29 29 29 27 24 27 35 32 28 31 37 37 34 28
17 12 8 6 7 10 11 13 17 19 22 24 27 29 30 32 32 32 34 35 31 30 34 34 34 35 36 35 35 35 35 35 36 32 30 33 39 39 38 39 39 35 32
16 11 8 6 8 12 15 17 19 21 23 25 28 31 32 34 35 37 38 39 41 41 40 38 37 38 39 41 41 40 41 41 40 41 39 36 37 45 47 42 43 41 39
14 8 6 7 10 13 15 17 20 22 25 27 29 32 35 37 38 39 39 42 44 46 45 46 44 39 37 42 44 45 49 48 45 46 44 41 41 42 49 51 49 44 40
10 7 7 10 12 14 16 18 19 22 24 27 30 32 35 38 40 42 43 45 46 48 49 48 46 47 45 43 43 44 45 48 47 43 38 32 35 40 43 49 49 45 41
10 8 9 12 15 17 19 21 22 24 24 26 28 30 33 34 36 37 39 41 45 49 51 51 49 48 49 48 47 47 45 44 47 46 46 42 39 40 39 43 50 49 46
12 10 9 12 15 17 19 21 22 24 25 25 25 27 28 29 30 30 29 31 33 39 47 54 55 51 49 50 48 49 46 41 43 46 50 50 47 47 47 47 50 53 51
14 11 10 12 16 17 19 21 23 24 25 26 27 26 27 28 30 28 28 27 27 29 32 41 51 57 58 55 53 52 48 45 45 45 47 52 50 54 48 57 58 58 56
17 13 11 13 15 17 19 22 22 22 22 23 24 26 29 29 28 27 27 25 25 26 26 28 34 43 53 56 55 51 49 47 42 42 44 45 48 52 55 58 56 57 65
18 16 15 15 17 19 20 21 21 23 25 27 29 30 30 27 27 27 27 27 26 25 25 25 26 27 31 41 51 55 55 53 52 51 50 49 47 46 46 44 47 49 56
23 21 19 17 17 20 20 20 22 24 26 26 29 30 28 27 28 28 28 28 29 29 28 28 25 28 29 30 32 37 45 51 54 56 55 49 45 43 47 49 48 47 43
24 23 22 20 18 18 18 19 20 21 25 26 24 25 26 28 28 27 27 28 28 28 29 29 28 23 29 32 32 32 31 31 31 30 30 30 32 32 30 30 34 39 41
22 21 22 21 19 16 16 16 16 18 20 22 23 23 25 25 26 24 22 26 27 28 31 32 32 29 27 33 38 35 26 21 13 13 8 3 8 12 20 28 26 25 23
25 20 22 21 18 15 15 16 17 20 22 23 24 25 25 26 26 26 26 26 26 25 26 27 30 30 26 27 29 26 19 15 5 11 10 11 14 17 18 22 19 19 19
28 21 23 19 16 14 15 17 18 20 21 22 23 25 26 25 26 27 28 30 30 29 26 24 24 26 27 23 21 9 10 8 27 28 27 29 32 33 33 32 32 32 31
25 22 19 16 16 17 18 19 19 20 21 23 24 26 27 30 27 29 30 30 30 31 31 28 23 22 21 21 15 11 14 20 11 25 27 34 27 26 26 24 26 31 35
20 16 11 16 20 23 22 21 22 23 23 24 25 25 26 28 28 28 28 29 28 28 27 26 25 21 18 17 20 24 19 14 11 11 31 39 28 24 24 19 24 24 27
16 10 12 19 26 29 28 27 26 26 25 26 26 26 26 28 27 27 28 29 29 28 27 25 22 22 19 15 16 17 16 9 14 12 16 35 38 24 20 26 23 29 29
Wind_Direction_500mb
154 168 133 128 119 127 127 116 114 94 71 57 48 42 33 26 24 24 32 40 49 78 111 106 92 98 89 59 63 58 111 184 155 132 102 80 59 33 14 5 14 32 54
148 186 167 149 142 146 139 130 120 100 71 52 40 31 26 20 19 22 30 46 65 78 89 99 99 66 3 336 18 17 8 280 213 194 157 119 80 41 9 357 352 360 24
150 138 185 160 144 134 144 127 119 101 32 11 9 359 360 2 7 12 15 23 47 60 58 342 75 19 336 301 277 294 301 291 238 222 226 223 233 331 352 341 336 336 330
180 168 158 166 150 139 123 97 43 341 332 328 327 330 335 339 342 351 353 347 321 311 312 306 311 322 338 327 301 288 284 279 249 226 212 225 252 259 330 320 331 322 318
180 178 181 167 167 153 126 71 16 347 332 328 324 323 322 321 323 325 324 323 312 298 290 290 286 290 303 319 320 300 285 271 242 221 216 242 259 243 285 322 312 319 313
164 152 157 165 175 177 186 339 314 306 313 318 315 313 315 313 311 311 309 308 306 299 296 292 290 291 292 293 306 309 294 276 241 219 220 240 263 270 282 302 293 305 300
152 157 163 170 183 193 207 221 239 259 273 281 285 292 298 300 302 302 301 298 295 293 291 291 289 290 290 285 289 299 299 287 264 235 226 235 242 254 268 289 293 294 297
152 153 162 182 206 229 243 249 254 261 269 274 279 281 282 285 284 287 291 290 290 287 285 285 287 289 290 286 281 283 288 289 277 257 239 236 243 256 270 278 282 286 288
168 174 181 192 216 242 266 278 276 273 272 269 268 269 270 272 274 277 275 273 277 282 282 283 283 283 282 284 282 280 280 280 278 268 253 244 245 240 246 265 274 278 286
178 179 194 226 261 285 292 286 283 280 277 277 275 272 270 270 270 270 271 271 263 267 277 280 281 282 281 280 280 282 282 278 277 274 265 254 248 247 250 257 266 273 283
186 193 215 258 289 297 296 294 291 288 285 283 280 281 280 279 276 273 272 272 272 266 261 264 272 279 281 283 281 282 282 279 279 277 273 267 257 252 251 255 259 269 279
194 208 249 282 293 294 297 298 300 300 298 298 295 292 290 287 283 279 275 270 268 270 268 266 262 261 271 274 277 280 279 280 278 278 277 274 266 262 257 252 256 264 272
210 238 280 298 303 306 310 311 311 308 306 303 298 295 291 289 287 285 281 275 271 266 266 267 264 257 259 262 268 271 273 276 273 272 274 280 275 268 269 256 255 256 266
227 255 284 300 310 317 322 320 319 318 313 307 305 302 298 296 294 291 288 283 276 269 265 264 266 264 262 264 265 268 273 272 271 274 272 270 269 267 271 267 260 263 264
232 254 277 296 310 320 322 324 323 320 316 317 315 314 317 320 320 320 314 305 294 281 272 264 261 262 263 264 266 269 268 276 278 276 275 272 272 267 257 257 261 269 272
244 262 283 304 316 323 324 323 323 322 323 327 330 332 334 334 332 331 329 324 316 306 292 278 271 265 263 264 266 269 272 271 272 272 275 279 274 273 269 256 259 265 266
252 264 288 302 310 318 322 326 330 326 327 328 331 335 333 331 331 332 335 331 327 321 311 300 287 278 271 266 266 265 268 270 275 273 269 271 275 273 277 279 277 271 269
257 274 279 291 305 318 325 328 330 331 334 334 335 332 327 324 322 326 329 329 330 329 322 319 315 306 295 281 272 266 265 267 269 274 278 282 285 283 281 281 279 276 272
263 266 272 291 305 318 325 328 332 336 336 333 331 325 320 317 316 319 320 320 320 317 316 319 323 320 316 303 295 287 277 274 275 275 275 279 281 287 288 286 284 276 274
266 267 273 284 300 310 315 322 330 337 335 335 334 327 321 316 313 314 314 313 312 311 309 307 308 310 311 311 311 306 303 296 294 290 285 283 283 284 295 298 289 276 270
257 266 276 282 285 295 305 315 321 327 329 333 335 337 332 331 329 326 319 313 310 310 312 315 316 312 301 301 307 303 309 323 308 305 322 221 264 272 288 297 297 295 290
250 267 279 274 279 289 299 309 318 326 331 334 336 338 338 344 341 336 333 330 324 316 311 313 316 322 326 336 339 345 348 7 66 16 337 309 287 289 296 291 286 285 283
243 274 285 266 273 282 289 302 311 318 324 329 331 333 334 337 337 336 335 335 336 335 332 330 325 327 336 346 6 12 341 326 302 282 292 300 295 302 303 299 287 283 284
246 281 282 271 278 283 288 295 304 312 317 322 325 329 330 333 337 335 334 335 338 342 343 345 340 335 343 353 10 285 301 291 299 306 300 305 302 314 309 313 305 298 296
259 289 280 285 283 280 283 291 298 303 307 312 318 322 325 326 330 331 331 332 332 333 335 338 337 335 335 335 339 331 326 311 269 293 311 314 324 343 325 318 315 312 315
249 247 264 282 286 283 283 287 290 293 298 304 312 316 317 318 322 327 327 326 326 326 323 322 322 319 321 325 332 328 324 321 292 307 300 308 312 329 317 316 317 318 318
Wind_Speed_850mb
12 8 3 7 8 8 8 8 7 6 7 9 10 10 12 13 16 16 14 13 12 10 8 8 8 7 5 6 8 8 1 3 4 5 4 4 7 9 11 13 11 10 6
12 12 6 9 9 8 7 7 6 5 4 5 7 7 8 10 12 14 12 10 10 10 8 5 4 2 1 2 1 5 5 3 8 6 4 6 7 7 8 13 13 11 5
10 5 11 7 7 6 5 4 3 2 1 3 5 6 8 9 10 12 11 6 4 4 4 2 2 3 4 4 6 7 6 6 7 13 10 7 5 3 9 10 13 11 6
21 15 11 8 6 5 4 2 2 3 4 5 7 9 9 9 9 10 10 8 6 5 4 4 4 5 8 9 9 9 8 7 7 11 13 10 10 8 5 9 14 12 9
20 19 15 10 7 5 3 2 3 4 7 9 11 12 13 14 15 14 13 11 10 10 11 11 12 12 12 12 12 11 10 9 9 12 17 13 10 8 4 15 14 15 12
24 18 16 12 8 6 4 1 6 9 10 12 13 13 14 18 19 18 18 17 16 15 15 15 17 18 18 17 15 14 14 12 13 16 20 18 16 13 15 21 19 19 17
24 20 18 15 12 10 8 9 11 12 14 15 16 16 17 18 20 21 21 22 22 22 21 21 21 22 22 22 21 19 17 16 16 20 27 24 19 16 19 21 22 23 22
19 17 13 10 8 8 10 10 11 13 15 17 19 19 20 21 22 23 23 24 26 27 28 27 27 27 27 26 26 25 23 22 19 21 27 29 24 22 23 32 29 29 28
16 12 9 8 7 8 9 10 13 16 19 22 23 24 26 25 26 27 27 27 26 29 31 33 34 33 32 32 30 29 29 29 27 24 27 35 32 28 31 37 37 34 28
17 12 8 6 7 10 11 13 17 19 22 24 27 29 30 32 32 32 34 35 31 30 34 34 34 35 36 35 35 35 35 35 36 32 30 33 39 39 38 39 39 35 32
16 11 8 6 8 12 15 17 19 21 23 25 28 31 32 34 35 37 38 39 41 41 40 38 37 38 39 41 41 40 41 41 40 41 39 36 37 45 47 42 43 41 39
14 8 6 7 10 13 15 17 20 22 25 27 29 32 35 37 38 39 39 42 44 46 45 46 44 39 37 42 44 45 49 48 45 46 44 41 41 42 49 51 49 44 40
10 7 7 10 12 14 16 18 19 22 24 27 30 32 35 38 40 42 43 45 46 48 49 48 46 47 45 43 43 44 45 48 47 43 38 32 35 40 43 49 49 45 41
10 8 9 12 15 17 19 21 22 24 24 26 28 30 33 34 36 37 39 41 45 49 51 51 49 48 49 48 47 47 45 44 47 46 46 42 39 40 39 43 50 49 46
12 10 9 12 15 17 19 21 22 24 25 25 25 27 28 29 30 30 29 31 33 39 47 54 55 51 49 50 48 49 46 41 43 46 50 50 47 47 47 47 50 53 51
14 11 10 12 16 17 19 21 23 24 25 26 27 26 27 28 30 28 28 27 27 29 32 41 51 57 58 55 53 52 48 45 45 45 47 52 50 54 48 57 58 58 56
17 13 11 13 15 17 19 22 22 22 22 23 24 26 29 29 28 27 27 25 25 26 26 28 34 43 53 56 55 51 49 47 42 42 44 45 48 52 55 58 56 57 65
18 16 15 15 17 19 20 21 21 23 25 27 29 30 30 27 27 27 27 27 26 25 25 25 26 27 31 41 51 55 55 53 52 51 50 49 47 46 46 44 47 49 56
23 21 19 17 17 20 20 20 22 24 26 26 29 30 28 27 28 28 28 28 29 29 28 28 25 28 29 30 32 37 45 51 54 56 55 49 45 43 47 49 48 47 43
24 23 22 20 18 18 18 19 20 21 25 26 24 25 26 28 28 27 27 28 28 28 29 29 28 23 29 32 32 32 31 31 31 30 30 30 32 32 30 30 34 39 41
22 21 22 21 19 16 16 16 16 18 20 22 23 23 25 25 26 24 22 26 27 28 31 32 32 29 27 33 38 35 26 21 13 13 8 3 8 12 20 28 26 25 23
25 20 22 21 18 15 15 16 17 20 22 23 24 25 25 26 26 26 26 26 26 25 26 27 30 30 26 27 29 26 19 15 5 11 10 11 14 17 18 22 19 19 19
28 21 23 19 16 14 15 17 18 20 21 22 23 25 26 25 26 27 28 30 30 29 26 24 24 26 27 23 21 9 10 8 27 28 27 29 32 33 33 32 32 32 31
25 22 19 16 16 17 18 19 19 20 21 23 24 26 27 30 27 29 30 30 30 31 31 28 23 22 21 21 15 11 14 20 11 25 27 34 27 26 26 24 26 31 35
20 16 11 16 20 23 22 21 22 23 23 24 25 25 26 28 28 28 28 29 28 28 27 26 25 21 18 17 20 24 19 14 11 11 31 39 28 24 24 19 24 24 27
16 10 12 19 26 29 28 27 26 26 25 26 26 26 26 28 27 27 28 29 29 28 27 25 22 22 19 15 16 17 16 9 14 12 16 35 38 24 20 26 23 29 29
Wind_Direction_850mb
154 168 133 128 119 127 127 116 114 94 71 57 48 42 33 26 24 24 32 40 49 78 111 106 92 98 89 59 63 58 111 184 155 132 102 80 59 33 14 5 14 32 54
148 186 167 149 142 146 139 130 120 100 71 52 40 31 26 20 19 22 30 46 65 78 89 99 99 66 3 336 18 17 8 280 213 194 157 119 80 41 9 357 352 360 24
150 138 185 160 144 134 144 127 119 101 32 11 9 359 360 2 7 12 15 23 47 60 58 342 75 19 336 301 277 294 301 291 238 222 226 223 233 331 352 341 336 336 330
180 168 158 166 150 139 123 97 43 341 332 328 327 330 335 339 342 351 353 347 321 311 312 306 311 322 338 327 301 288 284 279 249 226 212 225 252 259 330 320 331 322 318
180 178 181 167 167 153 126 71 16 347 332 328 324 323 322 321 323 325 324 323 312 298 290 290 286 290 303 319 320 300 285 271 242 221 216 242 259 243 285 322 312 319 313
164 152 157 165 175 177 186 339 314 306 313 318 315 313 315 313 311 311 309 308 306 299 296 292 290 291 292 293 306 309 294 276 241 219 220 240 263 270 282 302 293 305 300
152 157 163 170 183 193 207 221 239 259 273 281 285 292 298 300 302 302 301 298 295 293 291 291 289 290 290 285 289 299 299 287 264 235 226 235 242 254 268 289 293 294 297
152 153 162 182 206 229 243 249 254 261 269 274 279 281 282 285 284 287 291 290 290 287 285 285 287 289 290 286 281 283 288 289 277 257 239 236 243 256 270 278 282 286 288
168 174 181 192 216 242 266 278 276 273 272 269 268 269 270 272 274 277 275 273 277 282 282 283 283 283 282 284 282 280 280 280 278 268 253 244 245 240 246 265 274 278 286
178 179 194 226 261 285 292 286 283 280 277 277 275 272 270 270 270 270 271 271 263 267 277 280 281 282 281 280 280 282 282 278 277 274 265 254 248 247 250 257 266 273 283
186 193 215 258 289 297 296 294 291 288 285 283 280 281 280 279 276 273 272 272 272 266 261 264 272 279 281 283 281 282 282 279 279 277 273 267 257 252 251 255 259 269 279
194 208 249 282 293 294 297 298 300 300 298 298 295 292 290 287 283 279 275 270 268 270 268 266 262 261 271 274 277 280 279 280 278 278 277 274 266 262 257 252 256 264 272
210 238 280 298 303 306 310 311 311 308 306 303 298 295 291 289 287 285 281 275 271 266 266 267 264 257 259 262 268 271 273 276 273 272 274 280 275 268 269 256 255 256 266
227 255 284 300 310 317 322 320 319 318 313 307 305 302 298 296 294 291 288 283 276 269 265 264 266 264 262 264 265 268 273 272 271 274 272 270 269 267 271 267 260 263 264
232 254 277 296 310 320 322 324 323 320 316 317 315 314 317 320 320 320 314 305 294 281 272 264 261 262 263 264 266 269 268 276 278 276 275 272 272 267 257 257 261 269 272
244 262 283 304 316 323 324 323 323 322 323 327 330 332 334 334 332 331 329 324 316 306 292 278 271 265 263 264 266 269 272 271 272 272 275 279 274 273 269 256 259 265 266
252 264 288 302 310 318 322 326 330 326 327 328 331 335 333 331 331 332 335 331 327 321 311 300 287 278 271 266 266 265 268 270 275 273 269 271 275 273 277 279 277 271 269
257 274 279 291 305 318 325 328 330 331 334 334 335 332 327 324 322 326 329 329 330 329 322 319 315 306 295 281 272 266 265 267 269 274 278 282 285 283 281 281 279 276 272
263 266 272 291 305 318 325 328 332 336 336 333 331 325 320 317 316 319 320 320 320 317 316 319 323 320 316 303 295 287 277 274 275 275 275 279 281 287 288 286 284 276 274
266 267 273 284 300 310 315 322 330 337 335 335 334 327 321 316 313 314 314 313 312 311 309 307 308 310 311 311 311 306 303 296 294 290 285 283 283 284 295 298 289 276 270
257 266 276 282 285 295 305 315 321 327 329 333 335 337 332 331 329 326 319 313 310 310 312 315 316 312 301 301 307 303 309 323 308 305 322 221 264 272 288 297 297 295 290
250 267 279 274 279 289 299 309 318 326 331 334 336 338 338 344 341 336 333 330 324 316 311 313 316 322 326 336 339 345 348 7 66 16 337 309 287 289 296 291 286 285 283
243 274 285 266 273 282 289 302 311 318 324 329 331 333 334 337 337 336 335 335 336 335 332 330 325 327 336 346 6 12 341 326 302 282 292 300 295 302 303 299 287 283 284
246 281 282 271 278 283 288 295 304 312 317 322 325 329 330 333 337 335 334 335 338 342 343 345 340 335 343 353 10 285 301 291 299 306 300 305 302 314 309 313 305 298 296
259 289 280 285 283 280 283 291 298 303 307 312 318 322 325 326 330 331 331 332 332 333 335 338 337 335 335 335 339 331 326 311 269 293 311 314 324 343 325 318 315 312 315
249 247 264 282 286 283 283 287 290 293 298 304 312 316 317 318 322 327 327 326 326 326 323 322 322 319 321 325 332 328 324 321 292 307 300 308 312 329 317 316 317 318 318